Skip Page Navigation
NASA JPL Caltech
NASA Logo - Jet Propulsion Laboratory + View the NASA Portal
+ Center for Near-Earth Object Studies
JPL Home Earth Solar System Stars & Galaxies Technology
JPL Solar System Dynamics
BODIES ORBITS EPHEMERIDES TOOLS PHYSICAL DATA DISCOVERY FAQ SITE MAP
IMPORTANT: The SSD Announcement email list is now available. Major changes are coming in the near future, including possible hostname and/or URL changes. To be notified of such changes, subscribe to this email list.

Please visit this page for more details.


JPL Small-Body Database Browser
Search: [ help ]  
243815 (2000 SB297)
Classification: Main-belt Asteroid          SPK-ID: 2243815
Ephemeris | Orbit Diagram | Orbital Elements | Mission Design | Physical Parameters | Discovery Circumstances | Close-Approach Data ]

[ show orbit diagram ]
Orbital Elements at Epoch 2458600.5 (2019-Apr-27.0) TDB
Reference: JPL 9 (heliocentric ecliptic J2000)
 Element Value Uncertainty (1-sigma)   Units 
e .2860407087563758 5.7791e-08  
a 3.124730315278431 3.8788e-08 au
q 2.230930241223655 1.9402e-07 au
i 7.013802085637203 9.5196e-06 deg
node 235.7925654411541 6.1577e-05 deg
peri 68.74724878849463 6.4629e-05 deg
M 158.1011029729 1.6807e-05 deg
tp 2457714.467530931780
(2016-Nov-21.96753093)
8.8154e-05 TDB
period 2017.517163806464
5.52
3.7566e-05
1.029e-07
d
yr
n .1784371436626519 3.3225e-09 deg/d
Q 4.018530389333208 4.9884e-08 au
  Orbit Determination Parameters
   # obs. used (total)      188  
   data-arc span      8047 days (22.03 yr)  
   first obs. used      1995-11-15  
   last obs. used      2017-11-26  
   planetary ephem.      DE431  
   SB-pert. ephem.      SB431-N16  
   condition code      0  
   norm. resid. RMS      .63538  
   source      ORB  
   producer      Otto Matic  
   solution date      2017-Dec-07 17:56:35  

Additional Information
 Earth MOID = 1.22682 au 
 Jupiter MOID = 1.3391 au 
 T_jup = 3.139 
[ show covariance matrix ]

Ephemeris | Orbit Diagram | Orbital Elements | Mission Design | Physical Parameters | Discovery Circumstances | Close-Approach Data ]

Physical Parameter Table
Parameter Symbol Value Units Sigma Reference Notes
absolute magnitude H 15.9   n/a MPO427392  

243815 (2000 SB297)          Discovered 2000-Sep-28 by LINEAR at Socorro
Reference: 20100726/Numbers.arcLast Updated: 2010-07-28

[ show close-approach data ]
Alternate Designations
 2000 SB297 = 1995 VQ17 
Ephemeris | Orbit Diagram | Orbital Elements | Mission Design | Physical Parameters | Discovery Circumstances | Close-Approach Data ]
ABOUT SSD CREDITS/AWARDS PRIVACY/COPYRIGHT GLOSSARY LINKS
FirstGov 2019-Dec-09 23:46 UT
(server date/time)  
NASA Home Page
Site Manager:   Ryan S. Park
Webmaster  Alan B. Chamberlin